Theta_e
346 345 347 348 348 348 347 349 349 349 349 349 349 350 350 350 350 350 350 350 350 350 349 348 348 348 348 347 347 347 348 347 346 346 344 342 341 341 340 339 340 341 341 340 340 342 343 343 343 344 346 346 346 346 346 346 345 344 344 344 342 342 342 341 341 340 339 339 342 343 343 342 342 341 341 341 342 341 339 339 339 336 338 340 344
345 348 347 350 347 348 349 349 349 349 349 349 350 350 349 350 351 350 350 350 350 350 349 348 347 347 347 347 347 347 347 346 346 346 342 341 341 340 340 340 339 340 340 339 340 341 342 342 343 344 345 345 344 345 344 343 343 342 343 342 341 341 341 340 339 339 340 339 338 339 339 340 340 340 341 340 340 340 338 338 338 336 337 341 342
348 347 347 350 348 349 349 348 349 349 350 350 349 349 350 350 351 350 350 350 350 350 349 348 347 346 346 346 347 347 347 347 346 346 342 340 340 340 339 339 339 339 339 339 339 340 341 341 343 343 344 344 343 344 343 343 342 342 341 341 341 340 340 341 340 339 340 342 340 339 339 339 339 339 340 338 340 339 338 338 338 338 336 341 340
345 347 348 349 347 348 349 349 349 349 349 349 349 350 349 349 350 349 350 350 350 350 349 349 349 347 346 346 346 347 346 346 346 345 341 340 339 339 339 339 339 338 338 338 339 339 341 344 344 344 344 343 344 343 343 342 341 340 341 340 341 340 340 341 340 340 340 340 339 336 335 333 335 338 339 340 339 338 337 337 337 338 339 339 340
346 346 348 350 350 349 350 349 350 350 349 349 349 350 349 349 349 349 350 350 350 349 349 348 348 346 346 346 346 346 347 346 345 343 340 340 339 339 339 339 339 338 338 338 340 340 340 344 345 346 345 343 343 343 342 341 341 340 340 340 339 338 339 339 338 339 339 338 337 334 331 331 333 337 339 339 338 336 336 336 336 337 337 338 339
346 346 348 348 350 351 348 350 349 349 349 349 349 348 349 348 349 349 349 349 349 349 349 348 348 347 346 346 346 346 346 346 345 341 340 339 340 339 338 338 338 338 338 338 342 345 346 345 344 345 343 342 341 340 340 341 341 340 340 339 338 338 338 338 339 339 339 337 336 333 331 331 332 333 338 338 337 335 336 336 336 337 336 337 337
346 347 348 349 349 349 347 350 349 349 349 349 348 348 348 349 348 348 348 348 349 348 348 348 348 347 346 346 345 346 345 345 343 340 340 340 339 339 338 337 338 339 338 339 340 339 341 342 343 343 342 341 340 340 340 339 339 339 338 337 337 337 338 338 338 338 336 333 331 331 330 331 332 333 337 338 337 336 335 336 336 337 336 336 336
348 348 349 349 349 347 346 349 349 349 349 349 349 348 349 348 348 348 348 348 348 347 348 348 347 347 346 345 345 345 344 343 342 340 340 340 339 338 338 338 338 340 340 341 342 343 342 342 341 342 342 341 341 340 340 340 339 336 336 337 337 337 337 337 336 335 335 330 331 331 330 331 330 331 336 337 337 336 335 336 336 336 335 335 335
346 348 348 349 349 344 347 349 349 349 349 349 349 348 348 348 348 348 347 346 347 347 347 346 347 347 345 345 345 345 344 343 341 339 340 339 339 338 338 338 337 339 339 342 344 344 343 343 343 342 342 341 340 340 339 339 338 336 336 336 337 338 337 337 336 333 330 330 330 330 329 331 331 330 335 337 336 335 335 333 333 335 335 334 334
345 348 348 349 350 341 346 347 349 349 349 349 349 347 347 348 348 347 346 346 346 346 346 346 346 346 345 345 345 344 343 343 341 338 339 340 339 338 338 337 337 337 337 339 339 340 341 341 340 340 340 340 339 339 339 338 337 336 336 336 336 337 335 336 334 332 329 329 329 331 333 334 331 331 334 337 337 335 334 334 335 335 334 334 334
346 347 348 348 349 341 347 348 350 349 349 348 348 348 348 348 347 347 346 346 346 345 345 345 345 346 346 344 343 343 343 341 340 338 339 339 339 338 338 337 336 337 336 336 336 337 340 339 339 338 338 339 337 337 337 336 336 336 335 335 335 336 338 334 331 330 331 332 331 333 336 338 333 332 336 337 337 336 336 336 335 334 334 334 335
345 347 348 349 344 340 345 345 346 348 348 348 348 347 347 347 347 347 347 346 346 345 345 345 345 346 345 344 344 343 342 341 338 338 339 339 338 338 337 337 336 336 335 335 335 335 336 336 335 336 336 334 335 335 336 335 335 334 334 334 334 335 335 334 330 331 330 332 333 334 334 334 335 336 338 339 339 339 337 337 336 337 337 335 335
345 346 349 351 349 338 342 343 344 346 348 348 348 348 347 347 347 347 346 346 346 346 345 345 345 345 344 343 343 342 341 340 337 336 338 339 338 337 337 337 337 336 335 335 334 334 334 335 335 334 333 334 334 335 334 334 334 333 332 332 333 336 333 331 329 329 329 330 330 331 332 334 335 336 338 338 339 338 338 338 338 338 338 338 338
345 345 347 349 348 342 336 339 340 344 347 348 347 347 347 347 347 347 346 346 346 345 346 345 345 344 344 343 342 342 341 340 337 335 337 338 338 338 337 337 336 336 336 335 335 333 333 333 333 332 332 333 334 333 333 333 332 331 331 331 332 332 330 328 329 328 328 328 329 329 329 331 332 336 336 339 339 338 338 338 338 338 338 337 337
343 347 347 348 347 347 337 335 339 339 343 346 347 347 347 347 347 347 346 346 346 346 345 345 344 344 344 343 342 342 341 340 337 336 336 336 336 336 337 336 336 336 335 334 331 328 328 330 333 332 332 333 332 332 332 331 331 331 331 331 331 330 328 327 326 327 327 328 326 327 329 330 334 335 336 338 337 336 337 338 337 336 337 336 335
347 346 347 347 347 347 345 339 333 334 339 343 345 347 348 347 347 346 346 346 346 346 345 345 345 344 344 343 342 341 341 340 338 336 335 335 334 334 334 335 335 335 333 330 327 326 326 329 331 332 332 332 331 331 331 330 330 330 330 330 330 328 325 325 326 325 324 324 325 325 325 328 331 332 333 334 333 333 334 335 336 336 334 334 334
346 347 345 345 346 345 345 345 341 330 332 336 339 340 343 347 347 347 346 346 346 346 345 345 345 344 344 343 342 342 341 340 338 337 336 336 335 333 333 334 335 333 331 330 329 328 327 329 330 331 331 330 330 330 330 329 329 329 329 330 329 327 324 323 326 325 325 327 326 326 325 327 330 330 330 330 331 331 331 332 333 334 334 332 332
344 345 343 344 344 344 344 345 346 344 347 337 332 337 341 344 346 345 344 344 345 346 346 345 345 345 344 343 341 341 341 340 338 337 337 336 335 334 333 333 332 331 330 329 328 327 327 328 329 329 330 329 329 329 329 328 328 328 327 328 327 326 325 325 326 326 328 330 330 330 330 333 332 333 334 333 333 332 330 329 329 331 331 333 331
341 342 344 341 341 343 344 345 346 347 347 345 346 342 334 340 342 343 343 343 344 343 344 343 342 343 342 340 338 337 335 335 336 336 336 334 332 331 332 331 331 330 329 328 327 327 327 328 328 329 328 328 328 328 327 327 326 326 326 325 324 324 323 326 328 328 329 328 329 329 329 332 332 332 333 333 334 334 333 333 333 333 332 332 332
339 339 340 342 340 340 342 344 345 345 344 345 345 347 333 332 337 339 340 341 340 340 340 338 336 336 336 335 332 334 331 333 327 332 331 334 331 328 330 330 331 330 329 329 328 327 327 328 328 328 327 327 326 326 325 325 324 324 325 324 322 322 326 326 327 327 327 328 328 329 329 331 334 334 334 333 333 333 332 333 332 332 332 332 331
335 337 338 339 340 339 340 340 342 344 344 345 345 345 345 329 332 332 333 336 336 336 335 329 325 325 329 326 330 339 338 336 335 333 325 332 324 325 329 331 331 330 329 328 328 327 327 327 327 326 324 323 321 321 321 322 322 323 322 321 319 324 323 324 324 324 326 327 328 328 330 331 333 336 334 333 333 333 332 332 332 332 332 331 330
333 334 337 338 338 339 340 339 339 340 343 344 345 345 345 338 344 344 344 338 331 328 334 341 335 339 325 334 340 340 338 336 335 332 332 331 329 323 326 329 329 328 327 327 326 325 325 326 326 325 324 323 321 320 319 318 319 320 319 317 322 323 322 322 321 321 322 324 327 329 330 331 332 335 334 333 333 333 331 331 331 331 331 330 329
329 331 334 335 336 338 339 339 339 340 341 342 343 344 343 343 345 345 344 335 337 337 342 340 342 341 341 341 338 340 338 339 335 333 332 324 328 323 325 327 327 326 326 326 325 325 324 324 323 322 322 323 321 321 321 321 319 315 315 318 320 321 320 320 320 319 319 321 324 327 329 330 331 333 333 332 332 331 331 330 329 330 330 329 329
330 331 331 334 335 336 337 338 338 340 341 341 343 344 345 343 343 343 344 342 341 338 340 339 340 340 340 339 339 339 338 338 329 327 328 331 327 322 323 324 325 324 324 324 324 323 323 323 322 323 323 320 320 319 318 316 315 315 315 314 315 317 318 318 318 318 317 318 321 325 328 329 330 330 331 331 331 329 330 329 329 328 328 328 327
332 332 332 330 332 334 335 337 337 339 340 340 341 341 343 342 343 343 342 341 341 339 340 341 342 342 342 340 338 340 339 337 336 334 333 331 329 326 325 325 324 324 321 322 320 320 320 321 321 321 320 319 318 316 314 313 312 312 312 312 312 314 316 316 316 316 315 315 316 321 325 327 329 330 331 330 330 329 328 328 328 327 326 326 325
333 330 331 331 332 332 334 335 337 337 339 338 339 340 341 341 341 344 343 341 341 341 341 340 341 340 342 339 338 338 338 337 336 335 334 333 329 326 325 324 324 323 322 320 320 322 322 322 321 320 319 317 315 313 312 311 310 308 308 309 310 311 312 314 314 314 314 314 313 318 321 324 325 327 328 330 329 328 327 327 328 327 326 325 324
331 330 330 331 331 331 333 334 335 336 338 339 338 338 339 339 340 342 342 341 341 339 340 341 340 341 343 340 339 338 337 337 336 335 335 333 330 328 326 324 324 322 322 321 322 323 322 320 319 318 318 315 313 311 310 310 309 307 306 306 307 308 308 310 312 312 313 312 312 314 318 320 322 323 323 325 325 326 326 326 328 327 325 323 322
329 329 331 330 330 331 333 333 334 335 336 338 336 335 337 338 339 341 341 339 340 340 340 340 341 340 340 340 339 339 337 336 335 336 334 334 332 331 330 326 325 323 323 323 323 322 321 319 317 316 314 312 311 310 309 308 307 306 305 304 305 305 305 306 309 310 311 310 310 310 316 318 318 320 322 322 323 324 324 323 326 326 323 322 320
327 328 330 331 329 330 331 332 332 332 334 335 335 335 335 337 339 339 340 337 340 341 342 340 340 339 340 339 337 336 336 336 335 335 335 334 336 336 332 329 327 324 324 324 323 321 319 317 316 314 313 310 308 308 308 306 305 303 302 302 302 302 303 303 305 307 309 309 308 307 312 316 316 317 318 319 320 321 321 322 322 322 321 319 318
328 329 330 330 329 330 329 329 331 331 332 332 333 334 334 335 337 338 340 340 339 340 341 342 341 340 339 339 338 337 337 334 335 336 334 332 332 332 330 330 329 328 325 321 320 319 318 316 314 313 311 309 307 307 306 304 302 302 301 300 300 299 300 300 301 303 306 307 307 306 307 311 313 315 315 316 318 319 319 319 320 320 320 320 318
326 328 329 329 330 328 328 328 329 329 330 329 330 332 333 333 335 337 337 335 338 339 339 339 339 339 338 338 338 337 336 336 334 334 333 332 331 329 327 327 327 327 326 321 320 318 317 314 312 309 308 307 306 305 304 302 301 300 300 299 299 299 299 299 299 300 301 304 305 306 304 305 309 312 313 314 316 316 317 317 317 317 318 318 317
323 325 327 329 328 326 326 327 327 326 326 327 328 329 332 332 334 336 334 335 337 337 337 337 335 339 339 338 337 337 335 335 335 334 333 330 329 328 326 325 325 327 326 321 318 318 316 314 312 310 308 306 304 304 303 301 299 299 299 299 298 298 297 298 298 298 298 299 300 302 302 302 303 306 310 312 314 314 314 315 315 315 315 316 316
323 324 324 324 324 323 324 324 324 324 323 324 325 328 330 331 332 334 333 335 335 336 336 336 335 336 337 338 337 336 335 335 334 334 331 331 328 326 325 323 323 323 322 320 317 315 313 310 307 307 305 304 303 302 303 300 299 298 298 298 298 297 297 297 297 297 297 297 297 297 298 299 299 301 303 307 310 312 313 313 313 313 314 314 314
321 322 322 321 321 322 321 321 321 321 321 321 321 324 328 331 331 333 332 332 333 333 334 336 334 334 334 336 337 336 335 335 334 332 331 329 326 323 322 321 321 320 320 318 314 312 309 307 306 305 303 302 301 300 299 298 297 297 297 297 297 296 297 296 296 296 296 296 296 296 296 296 295 296 298 300 303 308 311 311 311 311 311 312 312
320 320 320 320 319 319 320 319 320 320 321 321 320 321 324 328 330 330 331 330 330 330 329 334 333 333 333 333 335 334 334 335 334 330 330 328 324 320 319 318 319 318 317 316 312 310 308 306 304 302 301 300 299 298 297 296 296 295 296 296 295 295 296 295 295 295 295 295 295 295 295 295 294 294 294 294 297 300 305 308 309 309 310 311 311
319 320 320 320 318 319 319 319 320 321 323 322 322 322 325 328 328 325 329 329 328 328 327 327 332 333 332 332 332 332 329 329 331 330 326 322 319 317 315 315 317 316 315 314 312 309 308 306 304 302 299 298 297 296 297 296 296 295 295 295 295 295 295 295 295 294 294 294 294 294 294 294 293 293 294 291 292 294 298 301 304 306 307 308 309
320 320 319 319 318 319 318 318 320 320 322 322 323 325 326 326 326 326 327 327 327 327 325 324 325 328 331 331 330 330 329 324 323 323 323 320 318 315 313 314 315 315 314 313 311 309 307 304 302 301 300 297 297 296 296 296 295 295 295 295 295 294 294 293 294 294 295 294 293 293 293 293 293 296 293 292 291 292 294 295 297 300 303 305 307
319 319 320 318 318 318 318 318 320 320 321 321 322 323 323 324 325 323 320 324 326 326 324 323 321 321 323 329 329 328 328 323 320 319 318 317 315 313 312 313 313 314 313 311 308 308 306 302 300 300 298 297 296 295 294 294 295 294 293 293 294 294 293 293 293 293 293 293 293 293 292 293 293 293 293 293 293 292 293 293 294 294 296 300 305
317 318 319 319 319 318 318 317 319 320 319 319 319 321 321 321 323 321 318 316 316 318 321 319 319 316 317 320 321 322 323 323 319 316 315 312 312 312 312 312 313 312 311 307 306 305 304 302 300 298 299 298 297 296 295 295 294 293 292 292 293 293 293 293 293 292 292 292 292 293 293 292 293 293 293 293 292 292 292 292 291 290 291 295 299
316 316 317 318 317 317 318 318 318 319 319 317 316 317 316 316 316 316 314 312 313 312 314 316 315 314 313 314 316 316 316 318 317 314 311 309 309 310 310 311 312 311 309 307 305 303 302 300 299 298 297 297 297 295 295 293 292 292 291 291 292 292 292 292 292 292 292 292 292 292 291 291 292 292 292 292 292 291 291 291 291 290 290 292 294
315 315 315 316 316 316 316 316 317 318 317 314 313 314 314 314 316 315 313 312 312 311 312 311 312 312 311 312 312 313 313 313 313 313 310 308 308 308 308 308 310 310 308 306 305 303 303 301 299 298 296 295 294 295 294 293 290 289 290 290 290 291 291 291 291 291 291 291 291 291 291 291 291 291 291 292 291 291 290 290 290 290 289 291 290
313 314 314 315 315 316 316 316 316 316 316 314 314 314 316 317 315 316 318 314 310 309 308 308 307 309 309 309 310 311 311 310 309 309 309 308 307 307 308 308 308 309 309 306 304 303 302 300 299 297 298 295 293 294 294 293 291 288 286 286 287 288 290 289 290 290 291 292 292 291 291 291 290 290 290 290 290 290 289 289 289 289 289 289 289
313 313 314 315 315 315 315 315 315 315 315 315 314 314 316 317 317 317 318 312 311 311 310 307 305 305 305 307 307 308 309 308 308 307 307 307 307 307 307 307 308 308 307 305 304 302 301 300 299 297 296 297 295 295 294 296 291 290 289 287 284 284 286 287 289 289 290 290 291 291 291 291 291 291 291 290 289 289 289 289 289 289 288 288 288
312 313 313 313 314 314 315 315 314 314 314 314 314 316 316 311 312 316 312 311 306 302 303 303 302 301 301 302 302 304 305 306 306 307 307 307 308 308 309 308 308 308 307 304 302 301 300 300 301 300 298 294 293 293 296 299 293 290 286 289 286 287 282 283 284 287 289 289 289 289 290 289 290 291 291 289 289 289 288 289 288 288 288 288 288
312 312 313 313 313 314 314 315 314 312 314 314 314 315 309 306 304 305 305 303 304 304 301 300 300 300 299 299 301 302 303 303 304 305 307 307 308 308 308 309 308 307 306 304 302 301 301 301 302 299 298 296 293 293 295 299 296 296 294 290 287 287 288 286 285 284 287 287 288 289 289 289 289 289 289 289 289 289 289 288 288 288 288 288 287
311 313 314 313 314 314 314 314 313 312 313 313 314 310 309 305 303 303 303 303 302 301 301 300 298 298 300 300 299 299 301 302 302 303 304 306 307 307 308 308 308 307 306 305 304 303 302 303 302 300 299 299 296 294 295 297 299 297 298 298 297 291 289 285 285 281 286 288 288 288 288 289 290 289 289 289 289 288 289 288 288 287 287 287 287
311 314 314 313 314 314 314 314 313 312 312 312 311 308 308 307 305 306 307 306 304 303 305 304 302 302 301 298 298 296 298 299 300 302 304 305 307 307 308 308 309 309 307 307 306 305 304 304 302 301 300 299 298 295 295 294 297 297 298 298 296 297 292 286 285 284 281 284 286 286 287 289 289 289 289 288 288 288 288 288 288 287 287 287 287
312 313 313 313 313 313 313 313 312 311 312 312 308 308 308 306 306 307 308 307 308 306 305 304 303 301 298 297 296 296 296 297 298 299 301 304 305 306 308 308 308 309 307 307 307 306 305 305 302 302 301 299 299 297 296 295 293 294 296 296 294 296 293 298 293 287 286 281 281 286 288 287 288 288 288 288 288 288 287 287 288 287 287 287 286
311 312 312 313 313 313 312 312 311 310 311 309 307 307 307 307 307 308 307 309 311 308 306 304 301 298 298 295 294 294 294 295 296 297 299 301 302 305 306 307 307 307 306 308 307 306 305 303 301 301 301 300 300 300 298 296 295 295 293 294 295 294 294 297 295 294 288 284 283 283 283 286 287 287 287 288 288 288 288 287 287 287 286 286 286
311 313 313 313 312 312 311 311 310 310 310 308 306 306 306 306 307 308 307 308 307 306 304 300 298 297 297 294 293 293 294 294 294 296 297 299 300 302 304 305 307 307 305 307 306 306 305 303 302 303 303 302 301 302 300 298 297 297 295 295 293 292 292 292 294 294 293 291 285 282 283 282 281 285 287 287 287 287 288 287 287 287 288 286 286
311 312 312 312 312 311 310 309 309 309 309 307 306 305 306 306 307 308 309 308 304 302 300 297 298 296 296 293 293 293 292 292 294 294 295 297 298 300 302 303 306 305 305 305 304 304 304 303 303 303 302 302 301 301 301 299 298 295 296 294 293 292 290 289 289 290 291 290 286 284 284 283 283 284 285 287 287 287 287 287 287 287 287 287 286
Wind_Speed
6 9 10 9 7 9 9 8 9 9 9 10 11 11 10 11 10 10 11 12 12 13 13 13 13 13 13 14 14 15 16 16 17 18 17 17 16 15 15 15 14 13 14 14 15 15 15 16 16 16 18 19 20 20 21 21 21 20 19 20 21 21 20 19 18 20 22 23 24 23 23 23 23 22 22 22 23 23 22 21 18 16 13 17 22
9 7 8 9 5 2 5 8 9 9 9 9 10 10 11 11 10 10 10 11 12 12 12 12 13 13 13 13 14 15 16 16 17 17 17 17 16 15 15 15 14 13 13 14 15 15 15 16 16 16 18 19 20 20 19 19 19 19 20 20 20 19 18 17 16 15 17 19 21 22 23 25 24 23 24 23 23 23 21 21 21 15 13 21 23
9 8 8 9 5 2 3 6 8 9 8 9 10 9 10 10 10 10 10 11 12 11 11 12 13 12 12 13 14 15 15 16 17 17 17 16 16 15 15 15 15 13 14 15 15 15 15 15 15 17 17 18 19 19 19 19 19 20 20 20 19 18 16 15 13 12 10 12 15 16 19 22 24 24 24 23 23 24 21 22 22 20 16 24 22
9 8 9 9 4 2 1 6 7 9 8 8 9 9 9 10 10 11 12 12 12 12 12 13 13 12 12 13 14 14 15 16 17 16 16 16 15 14 14 15 15 14 14 15 15 15 16 17 17 17 18 18 19 20 19 19 19 18 19 19 17 16 14 13 11 10 12 11 13 14 12 14 17 24 22 23 24 24 21 24 23 24 24 23 25
8 7 8 9 9 5 3 8 8 10 9 9 9 9 9 10 10 11 12 12 12 12 12 12 12 12 12 13 14 14 16 16 16 16 16 16 15 14 14 15 15 16 15 15 15 15 16 17 18 19 19 19 20 20 19 19 19 19 19 17 16 15 13 11 9 7 13 14 15 14 13 14 12 20 22 23 23 22 21 22 23 23 22 24 25
7 7 8 8 9 9 5 8 9 9 10 9 10 9 9 10 10 10 11 12 12 12 12 12 12 12 13 13 14 15 16 16 16 16 16 15 15 14 14 14 15 16 16 16 17 18 18 18 19 20 19 19 19 19 18 19 19 19 18 16 14 13 12 11 8 5 6 13 14 11 13 14 13 13 22 22 22 22 22 24 23 22 23 24 24
8 6 7 7 7 9 6 8 9 9 9 9 10 10 10 10 10 10 11 11 11 12 12 12 12 12 13 13 14 15 16 16 15 15 16 15 15 14 14 14 16 16 16 16 16 15 17 17 18 19 19 18 19 18 18 18 19 17 16 15 13 12 11 10 12 11 11 11 11 11 11 15 13 11 22 19 20 22 23 23 22 22 24 22 24
7 5 7 7 7 9 6 7 8 9 9 9 10 10 9 9 9 10 10 10 11 11 11 11 12 12 12 14 14 15 15 15 16 15 15 15 14 14 14 14 16 17 16 17 17 17 17 17 18 19 19 19 19 18 18 19 18 17 16 14 13 11 10 8 15 16 15 13 12 11 11 13 13 11 21 22 21 21 20 21 23 23 24 25 19
8 7 8 8 8 9 6 5 8 8 9 9 10 10 10 9 9 9 9 10 11 10 11 11 12 12 13 13 14 14 14 15 15 15 15 15 15 14 15 15 15 16 16 18 19 19 19 19 19 19 19 19 19 18 18 18 18 16 15 13 12 12 10 12 10 14 13 12 13 11 12 13 12 13 18 21 22 23 21 18 19 22 23 21 21
9 7 7 8 8 8 6 3 8 8 9 9 9 9 10 10 9 9 9 9 10 10 11 11 12 12 13 13 14 14 14 15 15 15 15 15 16 15 15 15 14 14 16 15 15 16 18 18 18 19 19 19 19 18 18 18 17 16 14 13 12 11 7 8 11 15 12 13 14 13 11 13 12 12 17 19 20 19 16 14 15 16 17 20 23
9 7 7 8 10 8 6 3 4 5 8 8 8 9 9 10 10 9 9 9 10 10 10 11 12 12 13 13 13 14 14 14 14 15 15 15 15 16 15 15 15 14 15 16 16 16 17 17 17 18 19 18 18 18 18 17 16 16 14 12 12 11 9 12 14 13 13 14 13 12 15 15 11 11 17 18 20 18 16 17 17 18 20 21 21
9 8 7 7 10 8 6 5 3 6 8 7 8 8 10 10 10 10 10 9 9 10 11 11 11 12 13 13 13 13 13 14 14 14 14 15 15 15 16 15 15 15 16 16 16 17 17 17 17 18 18 18 17 17 17 15 15 14 13 12 11 10 10 13 12 11 12 14 12 12 15 14 13 13 20 20 20 21 20 19 19 20 20 20 21
9 8 7 7 8 7 6 6 5 1 6 7 8 9 9 10 10 10 10 10 10 9 10 11 11 12 13 13 14 13 13 14 14 14 14 14 14 15 15 15 15 16 16 17 16 16 16 17 17 17 17 17 17 16 16 15 15 13 12 12 12 10 14 13 12 12 12 12 11 12 13 13 13 19 20 20 22 22 23 24 23 22 22 23 23
9 9 8 7 7 7 6 6 4 5 2 5 8 9 9 9 10 10 11 10 10 10 10 11 10 11 12 13 13 13 13 13 14 14 14 15 15 15 15 15 16 16 16 16 16 15 16 16 16 17 17 17 17 16 16 15 15 14 13 13 11 9 8 12 14 12 12 13 12 14 13 12 14 20 19 20 21 22 23 23 24 24 24 25 25
9 8 8 8 7 7 6 5 4 2 3 2 4 7 10 9 10 10 10 10 10 10 10 10 10 11 12 13 13 13 13 13 14 14 14 14 15 15 15 15 16 16 16 16 15 16 16 17 17 17 17 17 16 16 16 16 15 15 14 13 12 11 11 11 10 11 11 10 11 13 11 12 18 20 21 22 22 20 23 23 23 23 24 24 25
5 7 6 8 8 8 6 6 3 2 1 2 3 4 5 9 9 9 10 10 10 10 10 10 11 11 12 12 12 13 13 13 13 14 14 14 15 15 15 15 16 16 16 16 16 16 17 17 17 17 17 17 17 17 16 16 16 14 13 12 10 12 12 11 10 11 10 10 10 10 11 12 19 20 21 22 22 22 21 22 24 23 23 24 24
5 7 6 6 6 7 8 7 5 4 3 3 4 3 2 4 7 7 8 7 9 9 10 10 10 11 12 12 12 11 12 13 13 13 14 14 15 15 15 16 16 16 16 17 17 17 17 17 17 17 17 17 17 17 16 16 15 13 11 10 11 10 11 11 10 11 11 9 9 10 10 9 14 18 18 20 21 20 20 20 22 23 23 23 23
3 7 6 6 5 6 7 8 7 6 7 5 4 4 4 3 5 7 7 7 7 8 8 8 10 9 10 10 9 10 11 12 12 13 14 14 14 13 15 16 16 17 17 17 17 17 17 18 17 17 17 17 17 17 16 16 15 13 11 10 10 11 11 14 12 11 11 11 11 9 9 14 18 19 21 21 19 20 20 20 20 21 23 23 24
4 5 7 7 5 5 6 7 7 7 7 7 7 5 3 4 5 7 8 8 8 8 9 8 7 9 10 10 10 10 10 11 11 11 11 11 12 13 14 15 17 17 17 17 17 17 18 18 18 18 18 17 17 17 16 15 14 13 10 9 11 15 16 13 11 11 11 10 10 10 10 15 17 18 19 21 22 21 21 22 23 23 24 24 24
5 5 6 8 6 5 5 5 7 9 7 7 7 7 4 5 6 6 8 6 6 2 7 9 9 10 10 11 11 10 10 10 12 10 11 10 11 12 13 15 17 17 17 17 17 17 17 18 18 18 18 17 17 16 16 15 13 12 9 11 13 12 11 10 13 12 10 10 11 9 10 15 19 20 20 21 20 20 20 21 23 24 24 26 26
5 6 6 6 7 7 7 5 6 7 8 7 7 6 5 7 6 6 7 9 7 6 6 11 10 10 9 10 11 10 10 9 10 10 10 10 10 11 13 14 17 17 17 17 17 17 17 17 18 19 19 18 16 16 14 14 12 10 9 7 13 10 10 10 11 11 10 10 10 10 13 16 19 21 20 21 21 22 23 23 23 24 25 25 26
7 7 9 9 9 8 9 7 6 6 6 5 5 6 6 7 9 7 7 7 7 7 7 8 8 7 8 9 8 5 8 8 9 10 10 10 9 11 12 15 17 16 17 18 18 19 19 18 18 17 16 12 11 8 9 10 10 10 10 12 11 9 10 10 10 9 9 8 8 10 16 18 20 21 21 22 23 23 23 24 24 24 25 27 27
10 10 9 10 9 10 9 10 8 7 7 7 5 6 7 8 8 7 7 8 8 8 7 8 8 9 9 9 7 7 7 5 7 8 9 11 11 12 11 13 15 15 17 18 19 19 18 17 15 13 11 8 7 6 6 6 6 9 10 9 9 9 9 10 10 10 10 8 7 13 16 20 21 22 23 23 23 23 23 23 24 26 28 27 27
11 10 10 9 10 9 9 10 9 9 8 6 7 6 6 7 7 5 5 7 8 6 6 8 8 9 9 7 6 7 8 5 8 14 11 10 8 11 13 12 13 14 16 13 16 16 18 16 11 8 7 6 6 6 6 6 6 6 7 8 8 8 9 9 8 9 9 10 9 15 15 19 20 22 22 22 22 22 23 23 26 25 26 26 26
9 8 8 10 12 12 10 10 9 9 10 8 8 7 6 7 6 5 6 7 7 8 7 8 8 9 9 5 0 3 6 7 8 9 8 9 10 9 9 9 9 10 11 10 9 9 9 7 6 6 6 6 7 7 6 6 6 6 7 7 8 8 8 8 8 8 9 9 10 15 13 17 20 21 22 22 22 23 23 23 25 26 26 26 26
9 9 10 10 12 10 10 9 10 10 9 9 8 6 6 6 7 6 7 7 6 6 8 7 6 8 8 5 7 7 5 7 9 9 9 9 9 9 8 8 9 9 8 9 9 8 7 7 7 6 6 5 6 6 6 6 6 6 6 6 7 7 7 8 8 8 8 9 11 16 15 16 19 20 21 22 22 25 23 22 25 26 25 26 25
9 9 9 8 10 10 10 10 9 8 10 9 8 7 6 6 7 9 8 8 8 8 6 7 9 8 7 6 6 6 7 8 8 9 8 9 9 8 8 8 8 8 8 8 8 7 7 7 7 7 6 5 6 6 6 7 7 7 6 7 7 7 7 7 8 8 8 8 11 19 17 18 18 18 18 19 21 21 21 23 25 25 25 24 24
7 10 9 8 9 12 11 10 9 10 9 9 8 8 7 7 7 5 8 8 7 8 8 7 7 9 7 5 6 5 7 7 7 7 9 8 9 9 7 7 7 7 7 7 7 6 6 6 7 8 7 5 5 6 6 7 7 7 7 7 7 7 7 7 8 8 8 8 9 17 18 18 19 18 19 19 19 18 19 21 23 24 24 23 23
10 11 9 9 9 10 11 11 11 12 10 10 10 9 7 7 6 6 7 6 8 8 7 8 8 7 8 10 8 6 7 7 9 8 8 8 6 6 6 5 5 6 6 6 6 7 7 6 7 8 7 6 5 6 6 7 6 6 7 7 7 8 8 8 8 8 8 8 9 14 20 17 18 19 19 18 18 19 19 20 20 21 22 21 20
10 11 10 9 9 11 11 11 11 9 9 10 10 10 8 8 8 6 5 4 7 6 8 6 5 7 8 8 9 7 6 7 8 7 8 7 6 7 6 4 3 2 4 6 6 7 7 6 6 7 7 6 6 6 6 7 7 6 6 7 7 7 7 7 7 7 7 8 8 9 20 20 19 19 18 18 18 18 18 19 20 20 21 21 20
10 11 10 9 9 10 10 10 10 8 7 8 7 10 10 10 8 6 5 4 5 5 7 6 5 5 7 9 9 9 8 7 7 9 8 7 6 7 6 5 5 4 2 4 6 7 7 7 6 6 6 6 6 6 6 7 7 7 6 7 7 7 7 7 7 7 7 7 7 8 11 21 22 19 18 18 18 18 18 18 18 18 18 19 19
11 11 10 9 9 10 9 9 9 7 7 7 7 8 11 11 8 7 6 5 4 3 7 8 6 6 7 7 8 9 9 7 8 8 7 8 8 7 7 7 6 4 4 4 6 6 7 7 6 5 6 6 6 6 6 7 6 6 6 7 6 7 7 6 7 7 6 6 6 7 8 10 18 21 20 19 19 19 18 17 17 17 17 17 18
8 10 10 9 10 9 9 9 9 8 9 9 8 8 9 10 10 8 6 5 5 5 5 8 7 6 4 7 7 10 9 7 7 8 8 8 8 8 7 7 7 6 7 5 7 7 8 8 7 5 6 5 5 7 6 7 7 6 6 7 6 7 6 6 6 6 6 6 6 6 6 7 8 14 20 20 20 19 18 18 19 17 16 16 17
8 8 10 11 9 6 6 6 8 9 9 8 8 8 9 9 8 7 7 6 6 6 5 5 7 6 5 5 7 9 10 8 8 8 9 9 8 7 7 7 6 7 8 8 7 6 7 7 8 7 6 6 6 7 7 7 6 6 6 6 6 6 6 6 5 5 5 6 5 5 5 5 6 7 8 17 20 19 19 19 17 17 16 16 16
9 10 12 11 11 8 7 6 8 9 9 9 9 9 9 10 10 9 6 5 6 6 2 4 7 6 6 7 7 6 6 7 9 9 9 9 9 7 6 7 7 7 8 8 8 6 7 8 7 8 6 6 6 7 7 7 7 7 6 6 6 6 6 6 5 6 6 6 6 6 6 6 5 6 6 7 12 18 19 19 17 17 17 17 16
11 10 10 11 12 11 9 8 9 10 9 9 9 10 10 8 8 8 4 5 8 6 4 2 5 8 7 7 9 8 4 3 5 9 8 7 7 7 6 6 9 8 7 8 8 8 8 6 6 8 9 7 7 7 7 7 7 7 6 6 6 6 6 5 5 6 6 6 6 6 6 6 6 6 6 7 7 10 17 18 18 18 18 18 17
11 11 11 11 11 11 10 10 10 10 10 9 10 10 8 8 8 4 6 7 8 8 7 4 0 3 8 8 8 9 7 5 4 5 6 6 7 7 7 8 9 9 8 7 7 7 8 6 6 6 7 8 8 9 8 7 7 7 6 7 6 6 5 5 5 6 6 6 6 6 6 6 6 6 5 5 5 5 10 16 18 19 19 19 18
12 12 12 12 12 11 10 10 9 9 8 8 7 7 8 8 6 6 2 7 7 8 6 7 4 2 3 7 9 8 9 7 6 6 5 6 7 7 8 9 9 9 8 7 6 7 7 6 8 6 6 7 8 9 9 8 6 6 7 7 7 6 5 5 5 6 6 6 5 5 5 5 5 5 4 4 3 3 3 7 13 17 19 19 19
10 13 12 11 10 10 9 10 10 10 9 8 8 9 8 7 7 9 6 3 2 2 5 5 4 2 2 2 5 5 7 9 8 8 8 7 8 8 8 7 8 8 8 6 9 8 8 6 9 8 6 5 8 8 9 8 8 7 7 8 7 6 5 4 5 5 5 5 5 5 4 4 4 4 4 4 4 4 4 4 5 5 9 18 18
11 12 13 11 11 10 10 9 10 10 9 8 8 9 8 9 10 7 5 4 3 3 2 4 4 3 3 2 5 5 4 6 7 8 8 8 8 8 9 7 7 8 9 6 6 7 10 9 9 10 9 7 7 8 9 9 9 9 8 8 7 6 5 5 5 5 5 4 4 4 4 4 4 4 4 4 4 4 5 5 5 5 5 9 15
12 12 13 13 12 11 11 11 10 10 9 10 10 11 10 7 10 9 7 6 5 4 4 3 4 4 4 3 3 4 5 6 7 8 7 9 7 7 8 8 7 8 9 10 8 7 9 10 9 7 11 10 8 8 9 9 10 9 7 8 6 5 5 5 5 4 4 3 3 3 3 4 3 4 4 4 4 5 5 5 5 5 5 4 6
13 14 14 14 13 12 12 11 10 10 10 10 10 10 11 11 10 9 9 7 6 5 4 3 3 3 4 3 3 4 6 6 7 7 9 9 9 7 8 9 7 7 8 8 9 10 10 9 9 8 5 10 9 9 9 10 5 7 9 6 5 4 4 4 4 4 3 3 3 3 3 3 4 3 4 4 5 5 5 5 4 5 5 5 5
12 13 13 13 13 12 11 11 10 10 10 10 11 11 11 11 9 8 10 6 4 3 4 4 3 2 3 2 3 3 7 7 7 8 7 6 7 8 8 7 8 9 9 8 8 9 9 11 11 10 8 6 8 8 10 6 7 8 7 8 6 5 3 3 3 3 3 3 3 3 3 3 3 3 3 4 4 4 4 4 5 5 5 5 4
11 12 13 14 12 12 11 12 11 11 10 11 11 12 12 3 1 5 5 4 5 4 5 4 3 2 3 1 1 3 5 6 7 7 6 8 10 9 9 8 8 8 9 10 9 8 10 9 9 9 10 10 8 9 9 6 8 11 7 5 7 5 5 5 6 3 3 3 3 3 3 3 3 3 2 3 3 4 4 4 5 4 5 5 4
11 12 12 13 10 13 13 13 11 11 10 11 12 10 7 6 4 5 5 6 5 5 4 3 4 3 2 2 3 3 6 6 6 4 5 6 8 9 9 9 9 8 7 8 10 11 11 11 11 10 11 11 10 8 9 5 8 7 2 6 4 4 4 8 8 4 4 3 2 2 2 3 3 3 3 3 3 3 3 4 4 4 4 4 4
11 11 12 12 11 11 12 12 9 10 11 12 13 8 9 7 7 7 7 6 6 7 8 9 7 6 7 4 3 2 3 6 5 6 5 4 8 8 8 9 10 9 9 8 10 9 10 10 10 9 10 8 10 11 8 5 5 8 4 3 2 1 5 8 7 4 4 2 3 3 3 3 2 3 3 4 3 3 3 3 4 4 3 4 4
11 10 10 12 12 11 12 12 10 10 10 12 11 7 8 8 8 8 7 7 6 5 4 5 6 6 5 6 4 3 2 4 6 7 7 6 7 9 9 8 9 10 10 9 9 10 10 10 8 8 9 8 9 9 9 8 4 2 2 2 3 2 8 10 5 7 5 4 3 4 4 3 3 3 4 4 4 4 3 3 3 3 3 3 3
10 10 10 11 13 12 12 13 10 9 10 11 10 9 8 8 9 8 7 7 7 7 7 6 5 5 6 6 4 4 3 3 3 5 4 5 6 7 9 8 8 9 9 9 10 9 7 7 8 8 7 7 8 8 8 8 8 5 4 3 1 4 7 1 5 6 4 7 6 4 3 4 4 4 4 4 4 4 4 3 3 2 3 2 2
10 10 10 10 10 11 11 12 10 10 10 10 10 9 8 9 9 8 7 7 7 6 7 6 6 6 6 4 4 4 4 3 3 3 3 4 4 5 6 8 9 8 8 7 8 9 10 10 10 9 9 7 7 5 7 7 7 5 6 2 2 4 3 1 3 3 3 5 5 7 6 4 3 4 4 3 3 3 3 3 3 2 3 2 2
9 9 10 9 10 10 11 12 12 10 10 11 10 11 10 9 9 10 9 8 5 6 6 6 5 6 7 6 4 4 4 4 3 3 3 3 5 5 5 7 8 8 8 8 7 9 9 9 10 8 7 7 6 5 7 5 6 4 6 4 3 3 2 2 1 2 2 4 5 8 8 8 7 5 5 5 4 4 3 3 3 2 1 2 1
8 10 10 10 10 11 12 13 12 10 10 12 12 12 11 10 10 11 11 9 8 7 7 5 7 7 9 6 6 4 4 4 4 4 3 4 4 4 4 5 7 7 7 7 8 8 8 8 8 6 6 7 5 4 4 5 5 5 4 4 4 4 3 3 4 3 2 2 4 5 6 7 6 6 6 5 5 4 3 2 2 2 2 2 1
Wind_Direction
140 128 130 112 126 146 153 153 139 136 129 125 121 122 124 123 120 113 111 109 107 105 103 101 98 92 86 80 73 70 70 68 67 66 66 67 68 68 70 70 69 73 80 82 83 82 80 79 75 70 67 66 65 64 63 63 62 63 61 58 59 63 65 65 69 71 69 64 59 57 57 58 56 57 57 54 53 51 49 48 50 52 47 45 46
141 133 132 123 94 127 164 140 134 134 127 121 120 120 121 122 120 115 109 110 106 105 105 101 99 95 88 81 75 72 71 69 68 69 69 69 69 69 70 74 76 78 81 84 82 80 80 77 75 72 69 68 70 69 67 66 65 65 62 59 58 59 61 60 66 70 77 78 72 65 62 61 58 59 59 59 58 57 56 55 54 54 49 50 49
128 136 128 114 108 146 156 137 133 128 124 125 127 124 121 121 118 116 113 109 104 106 107 103 99 95 91 81 75 74 72 70 69 70 73 73 72 72 74 77 79 83 88 90 88 83 82 81 79 76 74 74 73 71 70 72 70 66 62 58 57 55 51 49 49 49 57 82 84 78 70 64 62 58 60 60 59 58 56 58 57 55 53 52 51
140 132 130 118 121 128 169 147 133 120 123 126 123 119 124 120 122 120 117 112 112 109 107 106 103 99 89 82 79 76 74 71 70 73 75 77 77 75 77 82 85 87 89 91 88 88 83 83 83 82 80 80 78 71 66 65 70 68 63 60 53 49 41 35 35 41 55 62 73 68 63 61 61 62 60 59 60 60 58 58 58 58 56 54 53
146 140 137 142 144 147 127 138 133 130 131 130 129 124 125 124 121 122 116 115 112 110 109 105 103 98 93 87 82 77 75 73 74 75 77 80 82 79 80 85 88 87 90 90 95 96 93 86 83 82 78 74 71 72 68 68 68 68 65 61 55 49 42 33 33 36 70 59 60 62 62 63 61 60 63 60 59 59 59 59 58 58 58 57 56
155 146 147 149 144 136 127 145 138 135 136 134 128 127 128 128 125 122 116 115 114 112 108 106 105 99 94 88 81 78 76 76 76 78 80 82 84 81 81 84 86 88 92 95 93 94 92 88 84 80 77 75 75 73 72 71 70 68 63 60 57 50 38 31 24 29 89 81 68 62 64 61 56 56 57 61 61 60 59 59 59 58 57 59 58
156 152 151 143 143 133 133 148 139 137 134 132 134 135 135 135 128 120 119 119 116 112 110 108 104 99 97 88 83 80 79 78 79 80 82 84 83 83 82 81 85 87 88 90 93 91 88 86 83 81 80 79 78 75 76 76 75 69 65 63 55 44 27 21 37 44 64 66 70 69 64 61 59 59 55 57 61 61 60 59 59 59 58 58 58
155 154 147 143 142 126 132 146 142 138 134 131 137 138 137 135 125 126 125 122 118 115 113 109 106 105 100 91 87 83 82 81 81 83 84 86 86 86 85 85 88 91 93 90 87 85 84 85 85 83 82 82 81 84 81 78 75 72 68 62 51 39 33 25 55 45 53 65 65 64 65 70 66 65 60 58 54 56 59 61 61 60 60 60 58
170 167 154 136 117 109 118 152 143 140 139 137 139 142 139 133 127 125 127 125 121 119 117 113 110 109 103 97 91 88 85 84 83 84 87 89 89 85 85 86 88 94 91 92 92 90 87 86 85 83 79 77 77 76 77 78 75 72 66 55 37 22 25 54 77 82 69 64 61 65 67 68 64 64 62 62 63 61 58 58 60 60 59 60 61
167 166 157 140 134 109 101 146 149 149 143 143 144 142 139 132 126 127 130 128 124 123 120 118 115 110 105 98 92 89 86 85 84 85 87 88 88 88 87 88 92 92 96 96 92 89 84 83 83 83 83 81 79 79 78 76 74 70 63 50 36 22 33 50 65 68 72 75 73 66 58 69 70 67 67 66 66 64 67 68 67 63 63 60 59
163 164 159 142 124 96 100 76 156 148 147 142 146 142 141 131 130 131 130 131 131 128 123 119 116 111 108 102 96 91 87 87 86 87 88 89 88 88 87 90 91 91 91 90 91 89 83 83 83 85 85 84 83 81 81 77 74 71 64 48 33 22 41 68 65 73 70 66 69 65 56 51 66 67 71 71 69 66 64 66 65 65 67 64 62
168 164 160 119 110 104 97 85 42 162 147 149 150 148 145 139 135 135 136 136 138 132 127 122 118 116 112 108 102 97 93 91 92 93 94 95 94 91 90 89 91 90 89 91 90 88 91 92 90 89 87 89 86 84 81 76 72 69 61 47 37 34 44 63 68 67 70 74 68 66 65 61 61 60 64 66 67 62 58 62 64 64 64 66 64
170 167 159 132 139 110 100 76 74 37 156 160 156 156 154 148 144 141 142 142 141 138 131 126 125 122 118 112 106 102 99 97 98 98 97 95 94 93 92 90 90 93 94 91 92 93 91 90 90 89 91 88 86 83 77 73 68 61 47 32 20 22 54 60 71 68 66 60 66 67 66 71 65 63 65 68 69 68 65 64 62 64 65 62 62
174 162 170 157 142 119 97 92 58 42 178 174 168 164 160 158 150 149 149 145 142 140 136 133 129 125 122 117 111 108 104 102 101 101 100 98 96 95 95 96 94 93 91 90 90 91 92 91 90 94 94 92 89 81 77 72 66 58 46 34 24 5 84 78 72 70 67 65 61 59 59 60 66 64 59 63 65 66 63 61 63 63 63 61 62
174 176 156 159 149 154 112 118 99 59 354 157 182 175 166 163 158 155 152 145 144 143 142 137 135 129 125 122 116 112 108 104 103 102 103 101 100 99 98 98 97 96 94 91 90 89 88 89 89 94 96 95 84 78 74 70 65 57 46 30 18 15 50 74 75 74 69 64 63 63 57 59 56 57 59 61 59 60 64 64 61 62 65 65 63
178 159 146 157 159 159 165 134 119 102 22 194 173 183 179 166 163 162 156 149 147 147 143 143 137 136 130 127 124 117 111 106 105 105 105 105 104 103 103 102 101 98 96 95 94 91 88 87 88 88 91 87 83 78 74 71 65 57 43 34 22 36 55 76 76 74 73 71 72 72 66 61 59 57 56 56 54 53 55 57 63 63 62 62 63
165 152 138 144 162 169 183 173 151 146 158 156 148 153 174 155 167 161 154 148 147 152 149 145 143 140 135 133 127 118 111 110 108 108 108 107 107 105 105 105 104 101 99 96 93 90 87 86 86 88 88 87 83 79 74 71 65 55 46 36 42 47 69 79 79 72 72 71 69 66 70 81 78 73 68 63 62 64 61 60 60 63 63 65 66
158 164 151 141 151 176 186 188 174 190 183 161 145 158 147 155 161 151 149 158 163 154 149 148 144 137 131 126 125 114 113 108 107 109 108 106 104 104 106 105 103 102 100 99 97 94 91 89 88 88 87 84 81 78 74 69 64 51 38 22 27 33 47 60 68 69 60 52 54 49 54 51 59 66 69 70 71 71 70 69 66 64 65 68 70
185 195 151 148 154 171 192 190 190 192 193 196 184 145 147 148 157 155 154 172 167 155 148 143 130 124 126 124 116 113 108 103 99 98 96 96 100 103 106 106 105 104 103 101 100 97 95 91 89 88 86 83 80 77 73 67 59 52 38 39 57 57 58 62 65 64 63 63 59 53 52 62 73 75 73 69 66 67 68 66 66 66 68 69 68
178 195 191 157 158 162 184 192 199 195 190 207 199 177 145 145 157 162 155 152 134 152 145 127 117 119 122 121 120 120 117 109 109 104 101 102 101 106 107 108 108 107 104 101 99 98 95 93 90 88 84 80 77 74 71 67 59 48 33 49 66 63 69 70 71 63 61 59 61 63 59 72 73 73 71 70 70 70 72 73 73 73 72 73 72
197 187 201 196 173 172 172 176 201 205 203 199 206 188 153 153 148 143 148 138 153 146 161 119 120 124 131 137 143 149 138 129 130 121 115 103 103 108 111 111 110 108 104 103 100 97 96 95 93 91 88 83 76 69 64 62 56 44 39 19 85 66 62 65 68 65 59 60 62 61 63 66 72 71 71 71 73 74 75 77 78 77 75 71 66
196 203 205 206 202 205 184 180 187 197 207 204 200 197 169 191 189 176 168 162 141 142 150 141 136 141 146 154 157 152 150 151 131 132 118 118 110 107 109 112 112 110 110 108 106 102 101 100 100 98 97 98 97 86 76 65 56 55 47 32 74 77 72 69 62 58 49 44 54 66 67 73 73 74 74 74 74 75 75 75 75 73 70 67 65
201 203 199 200 204 205 202 201 179 184 196 194 208 194 182 201 191 192 182 174 155 171 179 150 159 159 169 174 167 172 149 142 145 132 130 113 113 111 107 110 111 110 111 111 111 110 107 105 105 105 109 114 98 95 89 83 75 70 67 65 75 77 70 66 65 59 48 32 37 46 69 72 72 73 73 74 75 74 72 71 71 67 65 65 65
196 196 194 195 201 199 199 208 193 186 186 191 191 191 195 192 197 193 178 179 174 180 200 168 183 176 180 187 184 168 148 141 99 109 112 121 111 110 109 104 105 108 111 108 108 110 113 115 123 136 128 101 101 94 86 75 71 66 64 68 69 68 68 67 65 60 50 33 27 32 57 73 74 72 71 71 71 72 71 69 65 66 66 66 64
196 181 186 191 199 200 195 197 190 199 200 192 200 186 181 205 203 197 175 183 189 185 197 185 196 183 187 176 122 203 151 135 145 144 149 137 135 130 129 130 128 127 127 120 123 130 128 128 130 106 94 93 95 96 92 86 79 70 67 66 68 69 69 67 65 62 53 40 22 29 41 61 66 69 69 68 70 69 70 70 70 66 66 66 65
182 188 186 181 188 191 184 190 193 196 199 208 204 184 167 198 199 206 193 188 192 212 193 190 205 188 191 181 188 181 136 156 163 164 153 148 146 148 151 144 144 141 139 135 145 143 135 125 113 107 96 94 83 76 74 79 77 68 65 63 69 70 70 68 66 63 55 41 19 16 40 59 66 66 66 63 63 64 65 71 73 70 68 67 66
185 191 181 182 183 190 187 193 191 194 200 207 203 198 199 218 208 202 206 204 193 199 212 194 191 197 180 168 181 178 165 172 171 166 162 156 155 159 157 154 153 154 153 153 154 147 132 121 114 106 101 81 78 81 79 76 75 74 70 65 67 72 72 70 69 65 56 45 30 11 35 46 61 70 68 67 63 64 64 66 70 72 70 67 64
184 196 194 186 182 189 189 190 197 202 201 211 211 207 207 209 228 237 208 206 195 200 201 199 199 192 169 177 182 174 175 177 173 170 172 167 166 165 160 158 163 163 162 158 151 135 120 117 110 105 102 90 88 92 92 87 79 76 72 69 70 71 72 71 71 65 60 52 38 16 31 47 51 58 70 68 72 69 65 62 66 67 68 67 66
198 195 195 196 186 190 190 194 201 209 211 207 215 217 213 206 211 228 236 202 208 210 209 205 204 196 185 181 170 177 182 189 173 180 173 176 163 158 147 150 164 165 158 144 143 132 127 120 116 118 111 102 97 95 95 90 83 78 78 77 75 74 76 76 72 70 68 62 47 30 26 50 63 59 59 66 68 70 70 70 70 69 69 70 70
199 193 192 196 190 190 196 196 199 201 213 219 220 222 217 220 211 216 226 230 213 206 209 204 207 197 193 185 175 180 182 184 188 181 180 169 162 147 147 131 103 58 119 133 135 129 129 118 109 111 114 115 107 101 98 88 81 76 77 80 80 81 78 76 79 79 78 70 62 47 36 35 55 66 64 65 66 67 69 71 71 72 71 68 66
197 197 195 196 193 189 195 200 203 206 206 211 222 224 219 223 215 212 204 200 221 199 194 189 195 221 205 190 188 185 186 175 190 189 172 162 158 147 152 141 132 132 125 125 121 127 126 120 121 120 122 120 111 107 104 97 91 84 81 83 82 81 78 78 83 88 88 81 76 66 47 43 40 51 68 68 67 64 66 69 72 72 71 71 69
200 201 200 195 195 196 195 200 204 194 202 211 214 225 225 222 210 196 207 198 190 203 193 184 183 217 193 184 190 187 182 183 177 183 166 162 155 152 155 146 147 137 124 135 123 122 119 109 99 104 110 110 116 113 106 101 96 91 86 83 82 82 81 83 83 81 84 91 89 81 72 59 49 44 50 68 64 66 68 69 65 65 69 69 68
198 197 193 189 193 194 201 202 203 199 201 212 215 217 222 224 217 204 195 203 187 202 201 176 171 186 201 167 185 187 184 179 191 186 164 159 158 152 154 154 149 141 131 125 114 109 114 112 94 88 100 105 105 111 107 101 98 93 86 85 84 82 84 87 86 85 88 88 92 93 94 85 74 53 48 49 63 69 68 64 63 64 63 64 66
189 188 190 190 185 183 189 192 198 203 207 213 217 216 216 214 210 211 198 201 206 210 203 176 169 172 190 196 188 192 188 185 179 178 177 167 154 153 152 152 148 140 135 135 130 119 116 119 121 118 111 111 121 119 113 106 100 95 91 89 90 90 88 84 80 82 86 86 80 81 77 80 78 75 57 47 46 57 60 62 64 65 65 62 63
184 188 192 187 185 181 177 187 190 202 200 211 214 219 218 213 204 214 201 182 217 214 293 215 163 178 181 190 202 187 199 192 175 171 178 171 163 150 152 151 145 139 137 139 138 125 125 132 137 122 120 117 117 111 111 108 106 102 101 102 96 98 92 89 85 83 82 79 75 70 70 68 69 72 71 66 45 46 56 60 65 67 65 64 62
190 186 186 185 191 185 181 191 187 198 196 199 207 214 209 202 202 205 182 180 215 206 203 282 202 190 192 193 194 190 161 144 169 175 166 147 138 145 142 142 147 141 136 142 145 138 132 134 131 130 124 122 121 115 112 110 105 101 100 98 97 93 89 83 80 77 74 73 70 69 67 64 65 68 74 73 70 55 56 60 61 64 65 63 62
191 187 186 186 193 186 184 194 192 193 193 193 201 206 197 193 193 173 206 183 211 204 191 194 113 190 202 195 190 185 172 142 145 138 135 133 149 141 138 146 147 142 142 142 145 145 132 128 118 121 124 130 125 119 113 110 108 99 96 94 91 88 83 83 86 84 73 71 71 73 70 68 67 66 69 79 86 79 62 62 59 54 55 61 64
195 196 191 187 190 187 184 192 193 191 188 188 188 202 191 193 178 179 193 197 203 191 184 187 176 157 171 198 185 179 184 158 139 123 114 137 139 137 144 148 147 147 145 146 139 142 127 132 120 118 126 129 127 128 121 114 111 105 95 90 86 82 81 84 83 83 79 77 73 72 73 74 71 71 73 73 70 71 76 68 64 56 51 55 59
193 196 194 190 188 187 184 186 191 185 180 181 192 202 199 191 189 192 186 172 160 151 165 154 158 103 164 134 147 161 168 168 145 136 132 134 130 131 139 146 145 140 135 139 144 135 133 138 131 129 132 131 128 125 122 118 110 105 96 85 80 76 79 84 87 84 83 81 81 80 82 80 80 75 76 74 73 67 56 55 53 59 52 51 55
193 193 194 191 190 186 183 182 188 184 174 170 187 195 191 188 188 185 172 176 166 158 135 150 148 151 133 151 161 158 147 153 151 147 139 141 141 147 147 150 151 145 140 144 149 145 142 134 135 138 130 115 113 120 124 121 108 100 94 83 77 80 83 87 88 91 96 103 107 109 101 105 96 86 80 75 66 60 57 52 50 49 55 52 52
193 192 193 194 193 189 182 185 182 180 179 175 188 189 190 182 198 196 186 174 172 157 164 149 163 160 147 163 150 140 143 145 157 155 149 147 137 138 145 151 152 154 153 160 159 141 145 144 139 139 135 128 128 137 135 129 124 105 93 90 87 78 79 87 90 94 103 114 114 112 112 109 104 92 80 73 64 55 55 50 47 47 46 39 48
196 193 195 192 192 189 187 183 176 183 188 184 187 196 194 196 196 195 192 176 157 164 167 168 157 140 151 157 161 143 140 147 156 143 155 154 142 142 156 157 150 154 157 147 144 146 145 146 143 133 150 138 143 155 152 144 135 138 133 129 109 98 82 89 92 96 97 94 107 105 111 103 99 101 98 78 64 59 53 52 51 50 45 45 44
195 197 195 191 190 190 191 185 180 183 189 188 192 195 195 198 200 194 198 161 133 148 151 141 129 138 141 154 156 126 152 156 158 151 155 156 143 143 158 156 157 151 146 151 154 158 158 157 158 145 144 139 139 161 169 183 136 132 123 122 150 144 141 128 110 110 103 109 109 103 98 101 99 100 99 92 83 70 61 57 56 49 45 44 45
198 194 194 193 190 193 190 186 182 183 185 189 195 197 193 138 119 168 127 125 143 102 96 115 127 121 155 132 62 135 143 157 162 160 171 160 155 155 157 167 157 160 154 149 161 161 163 165 161 156 147 146 158 171 191 184 152 143 155 196 166 162 148 187 159 124 114 111 115 124 122 118 119 118 114 102 94 88 79 69 61 55 50 48 43
197 195 193 192 192 193 190 187 183 181 185 188 191 189 134 131 117 93 95 85 95 137 134 154 163 159 134 179 170 141 161 160 156 157 185 162 154 156 159 162 157 158 152 156 163 171 171 170 166 160 168 159 160 166 189 191 171 189 133 142 150 205 210 145 139 133 150 144 138 131 127 147 147 149 120 111 117 114 103 86 73 61 55 51 44
197 197 192 195 191 190 189 187 178 183 187 190 195 166 167 156 154 154 167 172 169 176 187 180 170 175 186 163 135 157 154 158 149 165 187 181 159 158 165 161 159 163 167 164 167 167 175 177 175 167 168 173 161 161 173 195 204 206 39 358 346 254 142 142 148 155 170 149 145 164 162 174 156 157 147 143 143 124 112 101 86 76 63 49 44
197 189 191 195 194 189 187 189 185 180 185 193 187 163 165 175 180 185 176 184 175 183 173 152 162 171 160 166 154 150 150 154 156 175 185 190 165 163 172 172 164 164 169 172 175 178 179 180 171 172 173 165 165 170 173 172 188 292 78 23 1 333 123 143 187 112 168 177 188 182 184 182 185 165 157 152 146 142 132 122 111 102 76 57 44
187 185 189 192 193 191 187 187 185 181 183 190 175 181 176 175 182 189 188 189 190 174 173 159 153 149 151 161 153 163 145 159 159 177 172 175 172 163 171 167 166 171 169 179 181 178 166 172 175 171 168 172 174 171 171 173 182 184 161 196 199 100 135 160 146 166 145 156 179 177 174 176 188 190 168 162 155 136 137 128 128 117 100 86 55
185 185 189 187 190 188 187 185 183 180 188 176 175 180 182 177 184 190 194 194 190 166 158 150 148 145 154 152 160 143 150 155 171 177 157 170 165 170 167 171 172 176 178 180 179 171 172 167 168 173 176 170 178 172 171 175 185 170 148 150 145 135 145 53 151 213 133 153 162 176 176 177 210 193 183 165 150 141 137 123 113 116 118 112 101
182 182 183 183 187 186 186 185 190 184 187 181 174 185 188 178 182 193 189 186 159 145 151 148 146 151 167 165 158 152 158 158 162 164 161 181 171 169 183 184 176 175 179 180 166 170 171 168 170 172 168 166 173 187 176 168 184 142 166 157 154 136 134 137 189 207 155 179 163 182 176 171 186 195 176 172 163 157 146 135 144 143 130 113 106
178 183 184 185 188 189 188 192 192 186 185 182 179 187 190 191 193 197 194 182 157 151 147 144 163 168 178 166 166 161 159 158 158 164 174 179 182 167 179 189 178 171 174 164 161 159 158 156 156 146 146 157 159 138 140 149 164 136 165 170 171 166 156 167 182 184 182 152 126 157 161 180 184 164 180 173 165 168 154 157 160 152 166 147 114